Погода в Байките

Погода в Байките : погода сейчас, прогноз погоды и архив. Всё, что Вы хотите узнать о погоде в Байките!

Хотите узнать прогноз погоды в Байките? Тогда Вам сюда: Погода в Байките

Поиск расширенной информации на нашем сайте:

Другие новости

Новости СМИ2

Главная страница сайта

Новости сайта

03.07.2017

Напоминаем, что на нашем специализированном сайте Метеоцентр.Азия вы можете получить высокодетализированные автоматические прогнозы погоды по пунктам России, СНГ и мира в авиационном формате (включающие направление и скорость ветра, видимость, явления погоды, количество и форму облачности, нижнюю и верхнюю границу облачности).


Погода в Байките - сегодня

Время (UTC), дата Ветер
(°,м/с) 
Видим.   Явления Облачность Т
(°С)
Тd
(°С)
f(%) Тe
(°С)
Pmin
(гПа)
dP
(гПа)
Po
(мм)
O2
(г/м3)
Тmin Tmax R s Состояние
почвы
00 22.11.17 тихо ()   4000 м    ясно 
-34.6 -38.1 71 -35  1033.4  0.2  748  347  -34.6      48  равномерный
сухой снег
100% 
03 22.11.17 тихо ()   20000 м    10/0 средняя, верхняя 
[Ac trans|Cs]
-33 -36.7 69 -33  1033.6  0.4  748  345           
06 22.11.17 тихо ()   20000 м    3/0 верхняя 
[Ci ing]
-28.6 -33.2 64 -29  1034.2  1.2  749  339           
09 22.11.17 тихо ()   20000 м    1/0 верхняя 
[Ci ing]
-29.5 -33.3 70 -30  1036.1  1.6  750  341           
12 22.11.17 тихо ()   4000 м    ясно 
-31.5 -35.2 70 -32  1038  1.8  752  344    -28.6       
15 22.11.17 200 (Ю) 4000 м    3/0 верхняя 
[Ci sp]
-33.5 -36.6 74 -34  1038.8  0.5  752  347           
18 22.11.17 тихо ()   4000 м    3/0 верхняя 
[Ci sp]
-34.6 -38.1 71 -35  1040  0.7  753  349           
21 22.11.17 тихо ()   4000 м    ясно 
-35.7 -39.4 69 -36  1040.3  0.2  753  351           
00 23.11.17 тихо ()   4000 м    ясно 
-37 -40.4 70 -37  1039.8  -0.6  752  353  -37      48  равномерный
сухой снег
100% 
03 23.11.17 тихо ()   20000 м    1/0 верхняя 
[Ci sp]
-37.4 -40.8 70 -37  1039.8  752  353  -38.1         
06 23.11.17 тихо ()   20000 м    3/0 средняя 
[Ac trans]
-34.9 -38.4 70 -35  1038.8  -0.7  752  349           
09 23.11.17 тихо ()   20000 м    9/0 средняя, верхняя 
[Ac trans|Ci sp]
-32.8 -36.5 69 -33  1037.6  -0.8  751  346           
12 23.11.17 тихо ()   4000 м  слаб. снег  10/0 средняя, верхняя 
[Ac trans|Cs]
-32.4 -36.2 69 -32  1036.9  -0.6  751  345    -32.4  0.3     
15 23.11.17 340 (С) 4000 м  {снег}  8/0 средняя 
[Ac trans]
-32.7 -36.5 69 -34  1036.6  -0.4  751  346           
18 23.11.17 330 (СЗ) 4000 м  слаб. снег  10/0 средняя 
[Ac As]
-30.8 -34.6 69 -32  1036.2  -0.1  750  343           
21 23.11.17 тихо ()   4000 м  слаб. снег  10/0 средняя 
[Ac As]
-28.7 -32.6 69 -29  1035.6  -0.2  750  340           
00 24.11.17 тихо ()   4000 м  слаб. снег  10/0 средняя 
[Ac As]
-27 -30.9 69 -27  1035.7  0.2  750  337  -33    0.6  48  равномерный
сухой снег
100% 
03 24.11.17 тихо ()   4000 м  слаб. снег  10/0 средняя 
[Ac As]
-26.3 -30.1 70 -26  1035.6  0.1  751  337           
06 24.11.17 120 (ЮВ) 20000 м  {снег}  6/0 средняя, верхняя 
[Ac trans|Ci sp]
-25.6 -29.6 69 -26  1036  0.4  751  336           
09 24.11.17 тихо ()   20000 м    8/0 средняя, верхняя 
[Ac As|Ci sp]
-27.1 -30.9 70 -27  1036.4  0.2  751  338           
12 24.11.17 270 (З) 4000 м    8/0 верхняя 
[Ci sp]
-29.3 -33.1 70 -30  1037  0.4  751  341    -25.6  0.2     
15 24.11.17 тихо ()   4000 м    8/0 верхняя 
[Ci sp]
-30 -33.7 70 -30  1035.7  -1.4  750  342           
18 24.11.17 тихо ()   4000 м    10/0 верхняя 
[Cs]
-31 -34.8 69 -31  1033.9  -1.9  749  342           
21 24.11.17 тихо ()   4000 м  слаб. снег  10/0 средняя, верхняя 
[Ac trans|Cs]
-29.4 -33.1 70 -29  1028.8  -4.6  745  338           
00 25.11.17 тихо ()   4000 м  слаб. снег  10/0 средняя 
[Ac As]
-27.8 -31 74 -28  1022.5  -6  741  334  -31    0.6  49  равномерный
сухой снег
100% 
Время (UTC), дата Ветер
(°,м/с) 
Видим.   Явления Облачность Т
(°С)
Тd
(°С)
f(%) Тe
(°С)
Pmin
(гПа)
dP
(гПа)
Po
(мм)
O2
(г/м3)
Тmin Tmax R s Состояние
почвы

Для получения пояснительной информации подведите курсор к названию столбца.

ПОГОДА в Байките - архив

Всё, что Вы хотите узнать о погоде в Байките - удобно и подробно!

Выберите нужную дату (начиная с 1 января 2015* года) и нажмите кнопку "Найти".
Будут отображены архивные сводки погоды по пункту Байкит, начиная с указанной даты.


Отображать данные в формате CSV (для использования в таблицах Excel)


Внимание! Наш архив погоды предназначен исключительно для личного некоммерческого использования в познавательных целях. Если Вам необходимы официальные справки о состоянии погоды (для производственных, юридических, коммерческих и т.п. целей), обращайтесь в органы Росгидромета.

*Примечание: данная дата относится к архиву по метеостанциям СССР (Россия, СНГ, Балтия).
Архив по метеостанциям Зарубежной Европы и Азии (кроме Китая) хранится 10 дней, по другим регионам земного шара (Китай, Африка, Америка, Австралия, Океания) - 1 день.

Байкит - район местоположения метеостанции


Название, широта, долгота, высота метеостанции:
Байкит 61.7°ш. 96.4°д. 262 м над ур. моря [Российская Федерация]

Дополнительная информация

В oтличие oт бoльшинства пoгoдных сайтoв мы публикуем пoдрoбную метеoинфoрмацию в детальнoм прoфессиoнальнoм фoрмате.

Характеристики температуры и влажнoсти вoздуха измеряются на высoте 2 м в тени вдали oт зданий и деревьев.
Скoрoсть ветра измеряется на высoте 10 м (на урoвне рoста челoвека скoрoсть ветра ниже в 1.5-2 раза). Если метеoстанция нахoдится в гoрoде или в лесу, тo скoрoсть ветра занижена на 2-4 м/с пo сравнению с oткрытым местoм. Скoрoсть ветра над акватoриями крупных рек и oзёр, а также на вершинах хoлмoв на 2-5 м/с выше, чем в oбычных услoвиях.
Атмoсфернoе давление в разных тoчках местнoсти мoжет значительнo oтличаться oт давления на метеoстанции, в зависимoсти oт услoвий рельефа (при пoдъёме на 10 м давление пoнижается примернo на 1 мм рт.ст.).